Location: �terpigny
(49.8910°N, 2.9249°E)
Time: 14:26:07
(UTC+00:00)

Okean O Rocket - Pass Details

Date: 24 October 2021
Orbit: 623 x 643 km, 98.2° (Epoch: 28 November)

Event Time Altitude Azimuth Distance (km) Brightness Sun altitude
Rises 17:35:12 0° 155° (SSE) 2,895 4.8 -9.6°
Reaches altitude 10° 17:37:24 10° 152° (SSE) 1,994 4.0 -9.9°
Maximum altitude 17:41:41 63° 72° (ENE) 702 1.6 -10.6°
Drops below altitude 10° 17:46:01 10° 351° (N) 2,018 4.2 -11.3°
Sets 17:48:15 0° 349° (NNW) 2,934 5.1 -11.7°
